Home   Weather   Paris   Past weeks

Flag for France Past Weather in Paris, Île-de-France, France — Yesterday and Last 2 Weeks

50 °F


Feels Like: 46 °F
Forecast: 52 / 60 °F
Wind: 9 mph from East

Location: Villacoublay

Current Time: Oct 23, 2016 at 10:33:21 PM

Latest Report: Oct 23, 2016 at 10:00 PM

Visibility: 3 mi

Pressure: 29.74 "Hg

Humidity: 100%

Dew Point: 50 °F

Location of ParisLocation

Past Weather in Paris — Graph


Paris Temperature Yesterday

Maximum temperature yesterday: 55 °F (at 4:00 PM)
Minimum temperature yesterday: 41 °F (at 7:30 AM)
Average temperature yesterday: 49 °F

High & Low Weather Summary for the Past Weeks

High68 °F (Oct 16, 3:00 PM)100% (Oct 11, 2:00 AM)30.30 "Hg (Oct 11, 2:00 AM)
Low41 °F (Oct 9, 8:00 AM)39% (Oct 9, 3:00 PM)29.59 "Hg (Oct 14, 4:30 PM)
Average50 °F83%30.03 "Hg
* Reported Oct 8 9:00 PM — Oct 23 9:00 PM, Paris, Weather by CustomWeather, © 2016

Note: Actual official high and low records may vary slightly from our data, if they occured in-between our weather recording intervals... More about our weather records


Paris Weather History for the Previous 24 Hours

Scroll right to see more
Time TempWeatherWind HumidityBarometerVisibility
9:00 PM
Sun, Oct 23
50 °FLight rain. Fog.7 mph94%29.74 "Hg2 mi
8:30 PM50 °FDrizzle. Fog.9 mph94%29.74 "Hg3 mi
8:00 PM50 °FLight rain. Fog.10 mph94%29.71 "Hg3 mi
7:30 PM50 °FLight rain. Low clouds.13 mph94%29.71 "Hg4 mi
7:00 PM50 °FLight rain. Fog.13 mph94%29.71 "Hg3 mi
6:30 PM50 °FRain. Fog.8 mph94%29.74 "Hg2 mi
6:00 PM50 °FLight rain. Cloudy.8 mph94%29.71 "Hg4 mi
5:30 PM50 °FLight rain. Fog.7 mph94%29.74 "Hg3 mi
5:00 PM50 °FRain. Fog.7 mph88%29.74 "Hg2 mi
4:30 PM52 °FRain. Partly sunny.7 mph82%29.74 "Hg4 mi
4:00 PM54 °FLight rain. Cloudy.8 mph72%29.74 "HgN/A
3:30 PM54 °FCool.12 mph67%29.74 "HgN/A
3:00 PM54 °FSunny.13 mph67%29.74 "Hg10 mi
2:30 PM54 °FSunny.12 mph67%29.74 "Hg10 mi
2:00 PM54 °FPassing clouds.13 mph67%29.74 "HgN/A
1:30 PM52 °FSunny.10 mph72%29.77 "Hg10 mi
1:00 PM50 °FPassing clouds.13 mph76%29.77 "HgN/A
12:30 PM50 °FClear.12 mph76%29.77 "Hg6 mi
12:00 PM48 °FClear.13 mph76%29.80 "Hg6 mi
11:30 AM48 °FClear.13 mph82%29.77 "Hg6 mi
11:00 AM46 °FClear.14 mph82%29.80 "Hg5 mi
10:30 AM46 °FClear.14 mph82%29.80 "Hg5 mi
10:00 AM45 °FSunny.12 mph87%29.80 "Hg10 mi
9:30 AM43 °FSunny.10 mph93%29.80 "Hg10 mi
9:00 AM41 °FPartly sunny.9 mph100%29.80 "Hg5 mi
8:30 AM41 °FFog.8 mph100%29.80 "Hg3 mi
8:00 AM41 °FFog.8 mph100%29.80 "Hg2 mi
7:30 AM41 °FFog.9 mph93%29.80 "Hg3 mi
7:00 AM41 °FClear.8 mph93%29.80 "Hg6 mi
6:30 AM43 °FClear.9 mph93%29.80 "Hg6 mi
6:00 AM43 °FClear.9 mph87%29.80 "Hg10 mi
5:30 AM43 °FClear.8 mph93%29.83 "Hg6 mi
5:00 AM43 °FClear.8 mph93%29.83 "Hg6 mi
4:30 AM43 °FClear.7 mph93%29.83 "Hg6 mi
4:00 AM43 °FClear.8 mph93%29.83 "Hg10 mi
3:30 AM43 °FClear.7 mph93%29.86 "Hg10 mi
3:00 AM45 °FClear.7 mph87%29.86 "Hg10 mi
2:30 AM45 °FClear.6 mph87%29.86 "Hg10 mi
2:00 AM45 °FClear.5 mph87%29.89 "Hg10 mi
1:30 AM45 °FClear.5 mph93%29.89 "Hg4 mi
1:00 AM45 °FClear.5 mph93%29.89 "Hg4 mi
12:30 AM46 °FClear.6 mph87%29.89 "Hg5 mi
12:00 AM46 °FClear.6 mph93%29.89 "Hg10 mi
11:30 PM
Sat, Oct 22
48 °FClear.6 mph87%29.89 "Hg10 mi
11:00 PM46 °FClear.7 mph93%29.89 "Hg10 mi
10:30 PM48 °FClear.5 mph87%29.92 "Hg10 mi
10:00 PM48 °FClear.5 mph87%29.92 "Hg10 mi
Weather by CustomWeather, © 2016

See weather overviewHow to use our weather pages